Location: Chuathbaluk
(61.5726°N, 159.2454°W)
Time: 11:19:11
(UTC+00:00)

A-11 Canister half - All Passes

Search period start: 30 November 2020 00:00
Search period end: 10 December 2020 00:00
Orbit: 1525 x 1684 km, 47.3° (Epoch: 29 November)

Date Brightness Start Highest point End Pass type
(mag) Time Alt. Az. Time Alt. Az. Time Alt. Az.
30 Nov - 14:26:42 10° SE 14:29:15 11° SE 14:31:46 10° ESE visible
30 Nov - 16:23:37 10° SSW 16:31:21 26° SSE 16:38:59 10° E visible
30 Nov - 18:25:37 10° SW 18:34:21 35° S 18:42:54 10° ESE visible
30 Nov - 20:29:13 10° WSW 20:37:29 31° SSW 20:45:33 10° SE daylight
30 Nov - 22:34:22 10° W 22:39:57 17° SW 22:45:27 10° S daylight
01 Dec - 14:06:02 10° SE 14:07:43 11° SE 14:09:24 10° ESE visible
01 Dec - 16:02:06 10° SSW 16:09:47 25° SSE 16:17:20 10° E visible
01 Dec - 18:04:01 10° SW 18:12:46 35° S 18:21:19 10° ESE visible
01 Dec - 20:07:34 10° WSW 20:15:55 31° SSW 20:24:03 10° SE daylight
01 Dec - 22:12:35 10° W 22:18:25 18° SW 22:24:09 10° S daylight
02 Dec - 15:40:38 10° SSW 15:48:13 25° SSE 15:55:42 10° E visible
02 Dec - 17:42:26 10° SW 17:51:10 35° S 17:59:43 10° ESE visible
02 Dec - 19:45:55 10° WSW 19:54:20 32° SSW 20:02:32 10° SE daylight
02 Dec - 21:50:49 10° W 21:56:53 18° SW 22:02:51 10° S daylight
03 Dec - 15:19:10 10° SSW 15:26:38 24° SSE 15:34:02 10° E visible
03 Dec - 17:20:50 10° SW 17:29:34 35° S 17:38:08 10° ESE visible
03 Dec - 19:24:17 10° WSW 19:32:45 32° SSW 19:41:00 10° SE daylight
03 Dec - 21:29:04 10° W 21:35:21 19° SW 21:41:31 10° S daylight
04 Dec - 14:57:41 10° SSW 15:05:04 24° SSE 15:12:23 10° E visible
04 Dec - 16:59:15 10° SW 17:07:58 35° S 17:16:33 10° ESE visible
04 Dec - 19:02:38 10° WSW 19:11:09 33° SSW 19:19:29 10° SE daylight
04 Dec - 21:07:20 10° W 21:13:48 20° SW 21:20:10 10° S daylight
05 Dec - 14:36:15 10° SSW 14:43:30 23° SE 14:50:43 10° E visible
05 Dec - 16:37:40 10° SW 16:46:22 34° S 16:54:57 10° ESE visible
05 Dec - 18:40:59 10° WSW 18:49:34 33° SSW 18:57:58 10° SE daylight
05 Dec - 20:45:36 10° W 20:52:15 21° SW 20:58:48 10° S daylight
06 Dec - 14:14:48 10° S 14:21:56 22° SE 14:29:01 10° E visible
06 Dec - 16:16:05 10° SW 16:24:46 34° SSE 16:33:21 10° ESE visible
06 Dec - 18:19:21 10° WSW 18:27:59 34° SSW 18:36:26 10° SE visible
06 Dec - 20:23:53 10° W 20:30:42 21° SW 20:37:25 10° S daylight
07 Dec - 13:53:22 10° S 14:00:23 22° SE 14:07:20 10° E visible
07 Dec - 15:54:30 10° SW 16:03:10 34° SSE 16:11:44 10° ESE visible
07 Dec - 17:57:43 10° WSW 18:06:23 34° SSW 18:14:53 10° SE visible
07 Dec - 20:02:09 10° W 20:09:09 22° SW 20:16:02 10° S daylight
08 Dec - 13:31:57 10° S 13:38:49 21° SE 13:45:39 10° E visible
08 Dec - 15:32:56 10° SW 15:41:35 34° SSE 15:50:07 10° ESE visible
08 Dec - 17:36:05 10° WSW 17:44:47 34° S 17:53:20 10° SE visible
08 Dec - 19:40:27 10° W 19:47:36 23° SW 19:54:38 10° S daylight
09 Dec - 13:10:33 10° S 13:17:15 20° SE 13:23:57 10° E visible
09 Dec - 15:11:21 10° SW 15:19:59 33° SSE 15:28:31 10° ESE visible
09 Dec - 17:14:27 10° WSW 17:23:11 35° S 17:31:47 10° SE visible
09 Dec - 19:18:44 10° W 19:26:02 23° SW 19:33:13 10° SSE daylight
